Location: ??
(35.1714°N, 128.2806°E)
Time: 20:07:40
(UTC+00:00)

Tiangong - Pass Details

Date: 23 June 2021
Orbit: 374 x 385 km, 41.5° (Epoch: 24 July)

Event Time Altitude Azimuth Distance (km) Brightness Sun altitude
Exits shadow 18:15:18 27° 314° (NW) 762 2.5 -19.4°
Maximum altitude 18:16:10 32° 347° (NNW) 671 2.6 -19.3°
Drops below altitude 10° 18:19:02 10° 54° (NE) 1,392 5.1 -18.9°
Sets 18:21:15 0° 64° (ENE) 2,249 6.2 -18.6°
